Temp
-18 -18 -18 -18 -18 -18 -18 -19 -20 -20 -21 -20 -20 -19 -19 -19 -18 -18 -18 -18 -20 -21 -22 -21 -21 -21 -21 -21 -21 -21 -22 -21 -21 -21 -21 -21 -21 -22 -22 -22 -21 -21 -20 -20
-19 -19 -19 -19 -19 -19 -19 -20 -22 -21 -22 -21 -20 -20 -19 -19 -19 -19 -19 -19 -20 -21 -21 -21 -21 -21 -21 -21 -20 -20 -21 -21 -21 -21 -21 -21 -21 -21 -21 -21 -21 -21 -20 -19
-19 -19 -19 -19 -20 -20 -21 -22 -22 -22 -22 -21 -20 -20 -20 -19 -19 -19 -20 -20 -21 -21 -21 -21 -21 -22 -21 -21 -20 -20 -21 -21 -21 -21 -20 -20 -20 -20 -20 -20 -20 -20 -20 -20
-20 -20 -20 -21 -21 -22 -23 -22 -22 -23 -22 -21 -20 -20 -20 -20 -20 -20 -20 -21 -22 -22 -21 -22 -22 -21 -21 -21 -21 -20 -21 -21 -21 -20 -20 -20 -19 -20 -20 -20 -20 -20 -20 -19
-21 -21 -22 -22 -23 -23 -23 -22 -24 -23 -22 -21 -21 -20 -20 -20 -20 -21 -21 -22 -22 -22 -22 -23 -22 -22 -21 -22 -22 -21 -21 -21 -21 -21 -20 -19 -19 -19 -20 -20 -20 -20 -20 -20
-22 -23 -23 -23 -24 -23 -23 -24 -24 -23 -22 -21 -21 -21 -20 -21 -21 -21 -22 -22 -22 -22 -22 -23 -22 -22 -22 -22 -22 -22 -21 -21 -21 -21 -20 -20 -20 -21 -20 -20 -20 -20 -20 -20
-24 -24 -24 -24 -23 -24 -23 -25 -24 -23 -22 -22 -21 -21 -21 -21 -21 -22 -22 -22 -22 -23 -23 -23 -23 -22 -22 -22 -22 -22 -21 -21 -21 -21 -21 -20 -20 -21 -20 -20 -20 -20 -20 -20
-25 -25 -24 -24 -24 -23 -24 -25 -25 -23 -22 -22 -22 -21 -21 -21 -21 -22 -22 -22 -23 -23 -23 -24 -24 -23 -22 -22 -22 -21 -22 -21 -21 -21 -21 -21 -21 -21 -21 -21 -21 -21 -21 -20
-26 -25 -24 -24 -25 -23 -25 -25 -25 -24 -23 -22 -22 -22 -22 -22 -22 -22 -22 -23 -23 -23 -24 -25 -24 -23 -24 -23 -22 -21 -22 -22 -21 -22 -22 -21 -21 -21 -22 -21 -21 -21 -21 -21
-26 -26 -25 -25 -24 -24 -26 -25 -25 -24 -23 -22 -22 -22 -22 -22 -22 -22 -22 -23 -23 -23 -24 -25 -25 -24 -24 -24 -23 -23 -22 -22 -22 -22 -22 -22 -22 -22 -22 -22 -22 -22 -22 -22
-27 -26 -25 -25 -24 -24 -26 -26 -25 -24 -23 -23 -23 -22 -23 -23 -23 -22 -23 -23 -23 -24 -24 -25 -25 -24 -24 -24 -24 -23 -23 -23 -22 -22 -22 -22 -22 -22 -22 -22 -22 -22 -22 -22
-27 -26 -25 -25 -24 -24 -26 -26 -25 -24 -24 -23 -23 -23 -23 -23 -23 -23 -23 -23 -24 -24 -24 -24 -25 -25 -25 -25 -24 -24 -24 -23 -23 -23 -23 -23 -22 -22 -22 -22 -22 -22 -21 -21
-26 -26 -25 -25 -24 -25 -26 -26 -26 -25 -24 -23 -23 -23 -23 -23 -23 -23 -24 -24 -24 -24 -24 -24 -25 -25 -25 -25 -25 -25 -24 -24 -24 -24 -23 -23 -23 -22 -22 -22 -22 -22 -22 -21
-26 -26 -26 -26 -25 -26 -26 -26 -25 -25 -24 -24 -24 -23 -24 -24 -24 -24 -24 -24 -24 -24 -25 -25 -25 -25 -25 -25 -25 -25 -24 -24 -24 -23 -23 -23 -23 -23 -22 -22 -22 -22 -22 -22
-27 -26 -26 -26 -26 -26 -26 -26 -25 -25 -24 -24 -24 -24 -24 -24 -24 -24 -24 -25 -25 -25 -25 -25 -25 -25 -26 -26 -25 -25 -24 -24 -24 -23 -23 -23 -23 -23 -23 -22 -22 -22 -22 -22
-27 -26 -26 -26 -26 -26 -27 -26 -26 -25 -25 -24 -24 -24 -24 -25 -25 -25 -25 -25 -25 -25 -25 -25 -26 -26 -26 -26 -26 -26 -25 -25 -25 -24 -24 -24 -23 -23 -23 -23 -23 -23 -22 -22
-26 -26 -27 -26 -26 -27 -27 -26 -26 -25 -25 -25 -25 -25 -25 -25 -25 -25 -25 -26 -26 -25 -26 -26 -26 -26 -26 -27 -27 -27 -26 -26 -26 -25 -25 -24 -24 -24 -23 -23 -23 -24 -24 -24
-27 -27 -27 -27 -26 -27 -27 -27 -26 -25 -25 -25 -25 -25 -25 -25 -25 -26 -26 -26 -26 -26 -26 -26 -26 -26 -26 -27 -27 -27 -27 -26 -26 -26 -26 -25 -25 -25 -25 -24 -24 -24 -24 -24
-27 -27 -27 -27 -27 -27 -27 -27 -26 -25 -25 -25 -25 -25 -26 -26 -26 -26 -26 -26 -26 -26 -26 -26 -26 -26 -26 -26 -27 -27 -27 -27 -27 -27 -26 -26 -26 -26 -25 -25 -25 -25 -25 -26
-28 -28 -28 -27 -27 -27 -27 -27 -26 -26 -26 -26 -26 -26 -26 -26 -26 -26 -27 -27 -27 -27 -26 -26 -26 -26 -26 -26 -26 -26 -27 -27 -27 -27 -27 -27 -26 -26 -26 -26 -26 -26 -26 -26
-28 -28 -27 -27 -27 -27 -27 -27 -26 -26 -26 -26 -26 -26 -26 -26 -26 -27 -27 -27 -27 -27 -27 -26 -26 -26 -26 -26 -26 -26 -26 -27 -27 -27 -27 -27 -27 -26 -26 -26 -26 -26 -25 -25
-27 -28 -28 -28 -28 -27 -27 -27 -27 -27 -26 -26 -26 -26 -27 -27 -27 -27 -27 -27 -27 -27 -27 -27 -27 -27 -27 -27 -27 -27 -27 -26 -26 -27 -27 -27 -27 -27 -26 -26 -26 -25 -25 -25
-28 -28 -28 -28 -27 -27 -27 -27 -27 -26 -27 -27 -27 -27 -27 -27 -27 -27 -27 -28 -27 -27 -27 -27 -27 -27 -27 -27 -27 -27 -27 -27 -26 -27 -27 -27 -27 -27 -26 -26 -26 -26 -26 -26
-29 -29 -28 -28 -27 -27 -27 -28 -27 -27 -27 -27 -27 -27 -27 -27 -27 -27 -28 -28 -27 -27 -27 -27 -27 -27 -27 -27 -27 -27 -27 -27 -27 -27 -27 -27 -27 -27 -26 -26 -26 -26 -26 -26
-29 -29 -28 -28 -27 -27 -27 -28 -28 -27 -27 -27 -27 -27 -27 -27 -27 -28 -28 -28 -28 -27 -28 -28 -28 -27 -27 -27 -27 -27 -27 -27 -27 -27 -27 -27 -26 -26 -26 -26 -26 -26 -26 -26
-29 -29 -28 -28 -28 -28 -28 -28 -28 -27 -27 -27 -27 -27 -27 -27 -27 -28 -28 -28 -28 -27 -28 -28 -28 -27 -27 -27 -27 -26 -26 -27 -27 -27 -26 -26 -26 -27 -26 -26 -26 -26 -26 -26
-29 -28 -28 -28 -28 -28 -28 -28 -28 -28 -28 -27 -27 -27 -27 -27 -28 -28 -28 -28 -27 -27 -27 -28 -28 -27 -27 -27 -26 -26 -26 -26 -26 -26 -26 -26 -26 -26 -27 -27 -26 -27 -27 -27
Height
5525 5532 5538 5544 5550 5556 5562 5567 5572 5582 5587 5595 5600 5603 5606 5609 5609 5608 5606 5603 5600 5596 5594 5592 5591 5587 5584 5580 5580 5578 5572 5566 5561 5559 5556 5555 5557 5560 5560 5563 5565 5564 5564 5568
5518 5525 5532 5537 5543 5549 5554 5561 5568 5576 5582 5589 5594 5597 5600 5602 5603 5601 5600 5597 5594 5592 5592 5590 5586 5582 5582 5579 5579 5576 5573 5569 5563 5560 5559 5558 5559 5559 5561 5564 5565 5565 5566 5570
5512 5519 5524 5529 5537 5543 5550 5558 5563 5571 5578 5583 5588 5592 5595 5596 5596 5596 5595 5592 5590 5588 5588 5585 5582 5580 5579 5577 5576 5575 5573 5567 5564 5561 5558 5558 5559 5560 5562 5565 5566 5565 5565 5568
5505 5512 5518 5524 5531 5537 5545 5552 5559 5567 5573 5578 5582 5586 5590 5591 5591 5591 5589 5588 5585 5586 5584 5581 5580 5578 5576 5577 5574 5575 5573 5568 5565 5560 5558 5558 5558 5558 5560 5565 5567 5567 5567 5570
5500 5507 5512 5519 5525 5533 5542 5549 5556 5563 5569 5574 5577 5581 5585 5586 5586 5586 5585 5583 5581 5581 5579 5579 5578 5578 5577 5574 5573 5574 5573 5570 5568 5565 5558 5559 5559 5560 5562 5567 5570 5571 5571 5573
5495 5501 5507 5514 5521 5531 5540 5545 5552 5558 5565 5569 5573 5577 5580 5581 5581 5582 5581 5580 5578 5576 5575 5575 5575 5574 5574 5572 5571 5572 5572 5572 5570 5568 5564 5561 5564 5563 5564 5566 5569 5572 5573 5574
5490 5496 5503 5511 5520 5529 5535 5540 5547 5553 5560 5566 5569 5572 5574 5575 5576 5578 5577 5575 5574 5573 5571 5571 5571 5570 5569 5569 5569 5570 5571 5571 5571 5569 5568 5566 5564 5567 5568 5569 5570 5571 5573 5574
5487 5494 5501 5509 5518 5526 5530 5537 5543 5551 5557 5562 5564 5567 5569 5570 5572 5573 5573 5572 5572 5570 5568 5568 5569 5567 5566 5567 5566 5568 5569 5568 5569 5569 5568 5568 5567 5568 5569 5570 5572 5572 5572 5573
5484 5492 5499 5507 5515 5521 5527 5534 5541 5547 5553 5557 5559 5563 5565 5566 5568 5570 5569 5567 5567 5566 5565 5565 5565 5564 5563 5563 5564 5564 5565 5566 5568 5567 5568 5568 5569 5569 5569 5569 5571 5571 5572 5572
5481 5489 5497 5505 5513 5517 5523 5531 5537 5544 5548 5552 5556 5559 5561 5563 5565 5565 5563 5563 5563 5562 5562 5562 5563 5562 5562 5561 5562 5562 5563 5564 5565 5566 5567 5567 5568 5568 5569 5570 5572 5569 5571 5572
5477 5486 5495 5502 5510 5514 5521 5528 5534 5540 5543 5549 5552 5555 5558 5559 5560 5560 5560 5560 5559 5559 5559 5559 5561 5561 5560 5560 5560 5560 5561 5561 5563 5563 5565 5568 5567 5568 5568 5567 5566 5567 5568 5568
5473 5484 5491 5499 5507 5512 5520 5525 5530 5535 5541 5544 5548 5552 5554 5555 5556 5556 5556 5556 5555 5556 5555 5555 5557 5558 5558 5559 5559 5560 5561 5561 5561 5563 5563 5564 5565 5566 5567 5566 5566 5566 5566 5567
5472 5481 5490 5497 5503 5510 5516 5521 5527 5532 5537 5542 5545 5548 5550 5551 5551 5552 5552 5551 5552 5552 5551 5550 5551 5554 5556 5556 5557 5558 5559 5559 5560 5561 5562 5562 5563 5564 5565 5565 5565 5565 5566 5566
5468 5478 5487 5495 5501 5507 5512 5517 5524 5530 5535 5538 5542 5544 5547 5547 5547 5548 5547 5548 5548 5548 5547 5546 5546 5548 5551 5552 5553 5555 5557 5558 5558 5559 5559 5560 5561 5562 5562 5563 5564 5564 5565 5565
5465 5475 5484 5491 5498 5504 5508 5515 5521 5527 5532 5535 5538 5541 5543 5544 5545 5544 5544 5544 5545 5544 5543 5542 5542 5542 5544 5546 5549 5551 5552 5554 5556 5556 5557 5558 5558 5559 5560 5561 5562 5561 5562 5562
5462 5471 5479 5487 5494 5500 5505 5512 5519 5523 5528 5532 5536 5538 5540 5541 5540 5541 5542 5541 5541 5540 5539 5539 5538 5538 5540 5541 5543 5546 5548 5549 5550 5552 5554 5555 5555 5556 5558 5559 5558 5558 5558 5557
5459 5468 5476 5484 5491 5496 5505 5513 5517 5520 5524 5528 5531 5535 5537 5537 5538 5539 5539 5539 5538 5538 5537 5536 5535 5535 5535 5536 5537 5540 5542 5544 5546 5548 5549 5551 5550 5551 5552 5553 5553 5553 5552 5552
5457 5465 5473 5481 5488 5495 5503 5507 5512 5517 5522 5525 5529 5531 5533 5534 5535 5536 5536 5536 5536 5536 5535 5535 5534 5534 5533 5533 5534 5535 5536 5538 5541 5543 5545 5546 5547 5548 5549 5549 5549 5549 5548 5547
5455 5462 5471 5479 5485 5492 5499 5504 5510 5514 5521 5523 5525 5528 5530 5531 5532 5532 5533 5533 5533 5534 5533 5533 5533 5531 5531 5530 5530 5531 5533 5534 5535 5538 5541 5543 5544 5544 5545 5546 5545 5545 5544 5542
5453 5461 5469 5475 5481 5491 5496 5501 5506 5511 5515 5518 5522 5524 5526 5529 5529 5529 5530 5530 5531 5531 5531 5530 5530 5529 5528 5526 5525 5526 5528 5530 5532 5535 5538 5540 5542 5543 5543 5543 5543 5542 5541 5539
5451 5458 5466 5473 5480 5487 5493 5498 5503 5509 5512 5514 5518 5521 5523 5525 5526 5526 5527 5528 5528 5528 5528 5527 5526 5524 5523 5521 5520 5521 5523 5525 5528 5531 5534 5537 5539 5540 5540 5539 5539 5537 5535 5534
5450 5457 5464 5471 5477 5483 5489 5494 5500 5506 5509 5512 5515 5517 5520 5522 5523 5523 5525 5525 5526 5525 5525 5523 5522 5521 5520 5519 5518 5518 5520 5523 5526 5529 5532 5534 5535 5536 5535 5535 5534 5533 5532 5529
5447 5454 5461 5467 5473 5479 5486 5494 5501 5505 5506 5509 5512 5515 5517 5518 5520 5521 5522 5523 5523 5523 5522 5520 5519 5519 5519 5519 5518 5517 5518 5521 5524 5527 5530 5531 5532 5533 5533 5532 5531 5530 5528 5524
5446 5452 5459 5465 5471 5478 5487 5493 5497 5500 5501 5505 5509 5512 5514 5515 5517 5518 5520 5521 5521 5520 5518 5517 5516 5517 5519 5520 5520 5520 5520 5521 5524 5526 5528 5529 5530 5530 5530 5529 5527 5525 5522 5518
5445 5452 5458 5464 5472 5478 5484 5490 5494 5496 5499 5503 5507 5509 5512 5513 5515 5516 5518 5518 5517 5517 5516 5516 5516 5516 5518 5519 5520 5521 5521 5522 5524 5525 5526 5527 5528 5527 5526 5524 5522 5519 5515 5511
5446 5452 5458 5464 5470 5475 5481 5486 5490 5493 5496 5500 5504 5506 5509 5511 5512 5513 5514 5515 5514 5515 5514 5515 5515 5516 5517 5519 5519 5520 5521 5522 5523 5524 5525 5525 5524 5523 5521 5519 5516 5512 5508 5503
5445 5451 5457 5462 5467 5473 5477 5482 5486 5490 5495 5498 5500 5503 5506 5508 5509 5511 5511 5511 5511 5512 5513 5514 5515 5515 5516 5517 5518 5519 5520 5521 5522 5522 5522 5521 5520 5518 5516 5513 5509 5504 5499 5494
Wind_Speed
52 44 38 35 37 43 43 37 32 35 31 26 26 22 16 13 11 10 12 16 15 11 12 18 17 12 12 11 13 18 23 26 10 6 5 6 5 11 16 17 14 13 17 4
31 30 33 30 34 41 37 35 38 34 29 28 25 19 17 13 9 8 12 15 14 8 9 13 11 9 13 11 10 17 19 22 7 8 6 6 10 6 15 17 16 15 16 17
34 33 31 27 37 39 38 38 36 32 28 27 23 20 16 12 9 10 12 14 14 9 8 10 6 10 12 12 12 14 20 17 13 13 6 4 3 9 9 8 8 17 10 14
34 33 29 39 39 40 39 41 35 30 27 27 24 19 16 12 11 11 12 13 14 11 9 4 7 9 11 11 10 11 14 8 10 10 12 3 6 7 11 5 4 17 20 13
29 30 37 40 42 41 41 38 31 28 29 28 23 20 19 14 12 11 12 13 15 11 8 7 5 5 8 12 4 5 7 10 10 19 19 8 0 10 15 18 16 17 13 8
32 38 41 45 45 42 41 35 30 29 29 26 23 22 18 14 11 12 15 15 14 13 11 10 9 4 6 4 1 5 6 5 5 7 21 21 18 25 20 21 21 10 1 2
37 40 50 48 43 41 42 34 32 29 29 25 24 21 18 15 14 13 16 15 14 15 13 14 12 7 4 6 5 5 13 11 11 5 7 8 13 12 10 7 9 5 5 5
36 48 48 44 42 44 39 35 29 28 26 25 23 21 18 16 13 15 17 13 12 13 14 15 14 10 5 6 5 6 7 11 10 6 10 7 11 7 5 5 3 1 2 2
37 51 48 44 44 46 35 32 29 26 26 26 24 19 16 16 14 15 14 11 12 10 14 15 12 9 9 8 5 5 8 13 10 9 11 8 4 3 2 2 2 1 1 2
38 47 45 45 46 42 35 34 26 25 25 27 21 18 17 16 15 15 12 12 12 11 14 17 11 9 10 9 5 7 13 13 13 13 14 9 3 2 1 1 1 1 1 2
42 45 48 46 46 39 32 31 24 25 27 22 21 18 16 14 14 13 14 13 11 11 12 20 15 12 9 10 8 10 16 15 15 16 17 16 7 6 3 2 2 4 4 4
41 45 48 46 43 39 33 29 25 26 23 23 20 18 15 13 13 14 14 13 12 12 11 16 21 16 13 9 6 12 7 10 13 11 10 10 10 8 6 5 6 7 8 9
43 48 43 45 42 36 35 29 26 25 23 21 20 18 14 13 13 14 13 12 14 13 12 13 21 24 18 13 10 6 7 6 7 7 6 5 6 6 5 4 4 5 7 8
42 45 47 42 38 36 35 29 26 24 21 20 20 16 14 13 12 12 12 12 13 14 12 13 16 23 28 22 19 14 11 8 6 8 8 7 5 4 4 3 4 6 8 10
43 47 45 44 38 38 32 27 26 23 22 20 17 16 14 12 12 11 11 12 13 13 13 13 16 17 21 28 25 22 19 15 12 9 7 7 7 7 6 6 7 10 13 14
34 41 45 40 39 36 31 28 26 22 20 16 14 14 12 11 9 10 10 11 11 10 9 10 12 16 16 18 23 24 24 22 19 16 15 13 12 10 10 13 16 17 18 18
34 31 34 38 38 36 30 25 23 21 19 17 14 13 12 9 9 11 11 10 9 7 6 6 8 10 13 13 16 19 21 22 20 20 19 18 18 17 17 18 19 21 22 22
35 36 35 36 35 34 29 28 25 22 19 17 14 13 12 11 11 10 10 9 8 9 7 7 6 7 9 12 15 16 16 17 19 16 17 15 14 15 16 18 20 22 22 24
32 33 38 37 35 32 28 26 22 20 17 15 13 13 10 12 12 11 10 10 9 8 7 7 6 6 7 9 14 16 16 14 15 13 10 9 8 9 10 11 13 15 15 17
36 32 35 36 35 31 28 26 23 21 18 16 15 13 11 12 11 11 11 12 12 11 10 10 11 12 13 16 16 15 16 15 16 14 11 9 8 8 9 10 10 13 16 17
37 36 36 35 32 29 27 26 23 20 17 17 16 13 13 11 11 12 11 11 11 11 12 11 12 14 15 14 15 14 13 14 15 16 14 12 10 10 9 10 13 11 14 16
39 35 35 32 31 30 30 27 24 18 17 17 14 15 13 12 12 13 11 11 10 9 10 11 11 11 8 8 7 8 12 15 15 14 11 10 10 8 11 10 12 13 15 18
39 37 35 34 34 33 29 21 16 14 15 16 17 16 14 14 14 12 12 10 8 9 10 11 11 7 5 3 5 2 11 15 14 12 10 8 8 8 9 10 13 17 19 23
38 37 36 34 32 29 19 20 21 21 23 21 18 16 16 15 13 13 14 11 10 10 11 9 7 10 11 8 6 5 7 10 11 10 9 7 6 6 9 12 16 19 22 25
36 34 33 31 28 22 20 17 19 22 22 19 17 17 16 14 13 13 12 10 9 10 8 5 7 12 12 9 6 4 5 8 9 8 6 4 4 7 11 16 21 24 27 29
30 30 29 26 23 22 19 19 21 22 22 19 17 16 15 14 13 12 12 10 13 11 8 7 7 13 12 8 6 7 7 6 5 4 4 4 7 11 16 21 25 28 31 34
30 28 26 25 24 22 22 22 22 24 24 20 20 19 16 13 11 11 13 16 15 12 10 7 8 10 10 9 9 8 6 5 5 6 6 9 12 16 21 25 29 32 36 39
Wind_Direction
232 243 251 239 242 244 222 214 193 198 183 186 198 198 202 226 249 279 304 311 311 281 290 282 306 326 321 320 311 312 340 349 335 344 135 142 200 201 220 229 226 214 211 337
228 235 229 234 239 225 216 202 185 184 181 192 199 196 207 226 251 281 299 306 317 291 269 273 300 318 315 331 304 323 339 342 323 346 310 239 215 182 212 228 240 232 224 258
213 219 227 225 223 211 203 188 181 178 185 193 198 199 209 231 250 274 289 302 313 305 259 290 308 323 332 322 293 310 335 352 315 313 355 27 143 205 195 211 256 240 234 157
219 220 215 209 208 200 190 188 178 179 189 198 200 204 212 229 247 268 287 297 303 313 271 300 330 325 323 309 284 301 339 360 349 325 315 42 138 179 213 137 165 172 131 130
209 211 205 207 194 196 189 183 176 188 193 198 199 207 216 226 245 265 278 285 289 302 277 289 263 298 302 299 289 283 318 101 106 89 99 101 308 187 210 182 145 132 122 108
204 204 204 196 196 192 189 174 186 195 197 196 199 212 217 227 243 252 265 272 286 300 307 274 269 278 277 240 182 217 244 277 64 123 121 123 128 117 128 156 166 175 174 340
204 205 197 197 197 188 184 182 193 199 197 195 204 214 223 232 243 257 267 275 284 296 290 275 288 287 248 230 222 234 235 249 275 294 205 176 135 122 147 149 179 208 275 292
205 202 205 200 190 190 182 186 196 201 196 198 208 218 225 236 250 258 267 279 286 298 277 268 272 289 261 231 234 251 225 229 253 240 221 168 137 136 147 143 153 198 275 291
208 209 207 195 192 192 183 190 201 200 197 203 210 219 232 242 252 261 271 284 282 290 268 253 265 273 271 276 245 236 201 197 203 220 197 162 138 141 120 155 168 129 126 239
207 208 201 193 197 191 188 197 200 200 201 207 210 221 235 244 252 260 278 279 276 278 265 235 250 243 249 251 250 204 178 193 188 212 208 197 214 264 205 137 74 239 204 161
206 205 198 195 200 195 195 196 198 200 207 208 212 222 239 253 260 270 278 282 277 271 267 232 233 222 216 237 223 197 197 198 203 204 215 225 238 230 239 329 324 317 330 341
204 200 201 201 209 201 198 197 196 202 206 211 214 227 242 254 261 269 275 280 273 266 267 243 227 230 219 210 219 199 189 199 199 206 198 214 219 230 232 244 262 279 291 296
200 203 208 211 216 197 201 196 199 204 207 210 217 230 243 256 263 268 275 280 272 266 264 257 236 228 230 212 212 224 206 219 203 188 195 198 204 211 222 244 267 282 291 298
201 205 211 213 207 199 197 197 200 205 206 212 219 233 247 259 270 273 280 279 270 265 268 263 253 238 232 232 227 230 237 229 206 199 209 209 208 220 217 254 283 302 308 309
203 207 207 207 203 201 196 194 201 203 207 214 219 234 250 264 265 278 284 276 268 271 276 266 254 251 242 238 236 235 231 234 236 231 224 235 233 236 254 275 294 303 303 299
201 205 202 198 198 196 190 198 201 204 209 212 222 235 249 260 275 277 271 267 272 281 279 270 265 254 254 250 245 243 239 241 244 242 252 255 262 267 268 276 287 284 283 284
193 194 197 200 196 191 193 197 202 203 204 211 220 239 250 262 269 264 258 258 258 264 294 290 276 257 254 253 249 247 249 250 253 250 252 259 264 271 271 274 280 288 290 289
203 206 203 195 195 191 190 198 201 202 203 210 220 236 248 262 260 256 254 257 256 251 270 282 295 279 264 254 252 250 246 244 251 261 261 266 273 279 279 277 280 285 287 288
191 201 199 192 196 191 193 199 200 201 206 213 223 235 239 253 255 254 252 251 254 257 261 273 286 290 288 274 258 249 244 248 232 234 235 240 248 261 272 284 289 293 299 303
190 192 187 194 194 191 194 195 193 196 200 210 226 230 230 247 256 256 255 257 259 262 269 277 282 285 286 278 267 249 240 238 227 221 213 214 223 248 265 276 282 290 292 295
192 196 194 190 190 187 194 194 194 197 202 218 229 228 232 243 249 249 249 259 263 268 278 286 290 290 284 275 265 251 231 219 211 213 210 214 236 260 259 280 300 309 315 316
194 187 185 185 188 193 195 193 193 197 211 226 222 227 233 243 247 246 246 256 260 269 278 288 298 291 269 276 273 246 210 204 201 204 213 228 247 276 302 309 313 315 315 317
176 179 182 189 194 196 199 192 188 210 220 217 218 225 229 239 244 242 244 251 262 274 285 297 296 241 198 138 85 132 195 195 199 204 218 233 272 290 301 308 312 315 318 320
179 184 185 191 196 199 195 178 186 204 214 218 218 223 232 240 245 244 243 248 271 284 295 299 237 193 180 173 159 129 120 152 176 191 218 236 254 285 308 317 321 323 323 323
184 184 190 196 199 202 204 198 201 213 219 222 219 220 229 241 240 232 239 255 259 278 282 234 211 196 192 197 207 210 181 173 178 188 202 234 278 303 317 327 330 328 325 325
190 194 195 198 205 213 215 206 202 209 213 213 216 225 235 238 230 231 238 240 253 264 239 230 230 201 205 214 227 199 182 182 187 204 221 259 298 316 325 324 324 324 323 323
196 199 202 209 215 216 215 206 204 206 209 211 213 223 228 231 235 239 237 238 249 262 234 215 220 208 212 218 214 209 208 212 229 236 265 290 307 315 317 319 322 322 323 324